Time,TemperatureF,DewpointF,PressureIn,WindDirection,WindDirectionDegrees,WindSpeedMPH,WindSpeedGustMPH,Humidity,HourlyPrecipIn,Conditions,Clouds,dailyrainin,SoftwareType,DateUTC
2013-09-26 21:52:00,56.5,50.7,30.11,South,180,3.0,3.0,81,0.00,,,0.00,meteohub,2013-09-27 01:52:00,
2013-09-26 21:53:00,56.3,50.9,30.11,SSE,158,2.0,2.0,82,0.00,,,0.00,meteohub,2013-09-27 01:53:00,
2013-09-26 21:54:00,56.3,50.9,30.11,SSE,158,2.0,2.0,82,0.00,,,0.00,meteohub,2013-09-27 01:54:00,
2013-09-26 21:59:00,56.3,50.9,30.11,SE,135,1.0,3.0,82,0.00,,,0.00,meteohub,2013-09-27 01:59:00,
2013-09-26 22:04:00,56.3,50.9,30.11,ESE,113,0.0,3.0,82,0.00,,,0.00,meteohub,2013-09-27 02:04:00,
2013-09-26 22:10:00,56.5,51.1,30.11,ENE,68,2.0,3.0,82,0.00,,,0.00,meteohub,2013-09-27 02:10:00,
2013-09-26 22:15:00,56.5,51.4,30.11,ESE,113,1.0,2.0,83,0.00,,,0.00,meteohub,2013-09-27 02:15:00,
2013-09-26 22:20:00,56.5,51.6,30.11,ESE,113,0.0,2.0,84,0.00,,,0.00,meteohub,2013-09-27 02:20:00,
2013-09-26 22:25:00,56.5,51.6,30.11,ENE,68,0.0,2.0,84,0.00,,,0.00,meteohub,2013-09-27 02:25:00,
2013-09-26 22:30:00,56.5,51.6,30.11,East,90,1.0,2.0,84,0.00,,,0.00,meteohub,2013-09-27 02:30:00,
2013-09-26 22:35:00,56.5,52.0,30.11,ESE,113,2.0,2.0,85,0.00,,,0.00,meteohub,2013-09-27 02:35:00,
2013-09-26 22:40:00,56.7,52.2,30.11,SE,135,2.0,2.0,85,0.00,,,0.00,meteohub,2013-09-27 02:40:00,
2013-09-26 22:45:00,56.7,52.5,30.12,SSE,158,0.0,4.0,86,0.00,,,0.00,meteohub,2013-09-27 02:45:00,
2013-09-26 22:50:00,56.7,52.5,30.12,ESE,113,2.0,4.0,86,0.00,,,0.00,meteohub,2013-09-27 02:50:00,
2013-09-26 22:55:00,57.0,52.9,30.12,ENE,68,3.0,4.0,86,0.00,,,0.00,meteohub,2013-09-27 02:55:00,
2013-09-26 23:01:00,57.0,52.9,30.12,ESE,113,3.0,3.0,86,0.00,,,0.00,meteohub,2013-09-27 03:01:00,
2013-09-26 23:06:00,56.7,52.5,30.11,East,90,1.0,4.0,86,0.00,,,0.00,meteohub,2013-09-27 03:06:00,
2013-09-26 23:11:00,56.5,52.3,30.11,ESE,113,3.0,4.0,86,0.00,,,0.00,meteohub,2013-09-27 03:11:00,
2013-09-26 23:16:00,56.7,52.5,30.11,NNE,23,0.0,3.0,86,0.00,,,0.00,meteohub,2013-09-27 03:16:00,
2013-09-26 23:21:00,56.5,52.3,30.11,ESE,113,3.0,4.0,86,0.00,,,0.00,meteohub,2013-09-27 03:21:00,
2013-09-26 23:26:00,56.5,52.3,30.12,ENE,68,4.0,4.0,86,0.00,,,0.00,meteohub,2013-09-27 03:26:00,
2013-09-26 23:32:00,56.5,52.3,30.12,East,90,4.0,4.0,86,0.00,,,0.00,meteohub,2013-09-27 03:32:00,
2013-09-26 23:37:00,56.5,52.3,30.12,ESE,113,6.0,6.0,86,0.00,,,0.00,meteohub,2013-09-27 03:37:00,
2013-09-26 23:42:00,56.5,52.3,30.12,ESE,113,3.0,6.0,86,0.00,,,0.00,meteohub,2013-09-27 03:42:00,
2013-09-26 23:47:00,56.3,52.2,30.12,ENE,68,2.0,6.0,86,0.00,,,0.00,meteohub,2013-09-27 03:47:00,
2013-09-26 23:52:00,56.1,52.0,30.12,East,90,3.0,6.0,86,0.00,,,0.00,meteohub,2013-09-27 03:52:00,
2013-09-26 23:57:00,56.3,52.2,30.12,ESE,113,1.0,3.0,86,0.00,,,0.00,meteohub,2013-09-27 03:57:00,